Starlink 32036

operational
NORAD ID: 60141 Int'l Des: 2024-120 Owner: SPXS Country: US Constellation: starlink
LEOCIRCULAR

Starlink 32036について

説明を読み込み中...

リアルタイム位置

3D地球を読み込み中...

次回通過

高度履歴

Altitude vs Time

uPlot chart will show altitude changes over time

軌道要素

1 60141U 24120G 25305.41694591 -.00000831 00000-0 -15941-4 0 9993
2 60141 53.1605 195.9822 0001137 95.2467 264.8664 15.30184158 76819
Epoch: Nov 1, 2025 • Age: 27 hours

現在のステータス

高度 475.5 km
速度 7.63 km/s
衛星直下点 4.20°N, 124.24°E
打ち上げ日 Jun 27, 2024
運用期間 1.3 years
タイプ internet

技術仕様

分類 Payload
質量 730.00 kg
乾燥質量 700.00 kg
総質量 730.00 kg
長さ 0.30 m
直径 4.10 m
スパン 29.00 m
形状 Box + pan
製造者 SPXS
バスタイプ Starlink V2M
フェーズステータス In Orbit
所有者/国 SPXS/US

大規模コンステレーション

Loading constellations...